Location: Sternwarte_Laufen
(47.9344°N, 12.9346°E)
Time: 08:43:55
(UTC+02:00)

Tiangong 2 - Visible Passes

Search period start: 20 August 2018 00:00
Search period end: 30 August 2018 00:00
Orbit: 384 x 395 km, 42.8° (Epoch: 19 August)

Date Brightness Start Highest point End Pass type
(mag) Time Alt. Az. Time Alt. Az. Time Alt. Az.
20 Aug 3.0 04:34:44 17° S 04:35:21 18° SSE 04:37:36 10° ESE visible
21 Aug 2.4 05:11:49 14° SW 05:13:57 28° S 05:16:46 10° ESE visible
22 Aug 2.7 04:16:34 23° SSE 04:16:34 23° SSE 04:18:51 10° ESE visible
23 Aug 2.1 04:53:39 23° SW 04:54:51 32° S 04:57:46 10° ESE visible
24 Aug 3.1 03:58:28 20° SE 03:58:28 20° SE 03:59:54 10° ESE visible
24 Aug 2.2 05:30:48 11° WSW 05:33:32 29° S 05:36:22 10° SE visible
25 Aug 2.0 04:35:41 31° S 04:35:45 31° S 04:38:38 10° ESE visible
26 Aug 4.0 03:40:39 11° ESE 03:40:39 11° ESE 03:40:50 10° ESE visible
26 Aug 2.5 05:12:59 18° SW 05:14:22 23° SSW 05:16:59 10° SE visible
27 Aug 3.1 04:18:06 19° SE 04:18:06 19° SE 04:19:23 10° SE visible
28 Aug 3.0 04:55:43 17° S 04:55:43 17° S 04:57:19 10° SSE visible
